DECAYED
Showing default

JILIN-01 GAOFEN 3D 4, 52389 (Decayed)

Orbit data source: Space-Track

JILIN-01 GAOFEN 3D 4, 52389 was a payload satellite owned by Changguang WJ (CN) in LEO that was launched on Sat, 30 Apr 2022 UTC via a CHANG ZHENG 11 launch vehicle from the Yellow Sea Launch Area, China (YSLA). Payload-class satellites include a variety of spacecraft equipped with specific instruments for various scientific and technological missions. These include communications satellites like Starlink; space stations such as the ISS; scientific satellites like the Hubble; Earth observation satellites from companies like Planet Labs, Umbra, and HawkEye 360; GPS; miniature CubeSats for education and research; and military/defense satellites.

Not visible in the next 10 days
Identifier
52389, 2022-046B
Orbit
Decayed
Country
Flag of CNCN / PRC
Related business
Manufacturer
Changguang WJ
Mission
Decayed Commercial Imaging
Bus & Motor
JL-1, Unknown motor
Mass
43 kg wet, 43 kg dry
Launch date (UTC)
2022-04-30 (4 years ago)
Launch vehicle
CHANG ZHENG 11
Launch site
Yellow Sea Launch Area, China (YSLA)
Object type
Payload
Rocket body
Debris
Shape & HBR
Box + 2 Pan, 0.8 m
Radar Cross Section
2.000 m², Medium (>0.1 m² and < 1m²)

Expand to show TLE details & history
Last TLE update: 2 months ago

TLE from 2 months ago
0 JILIN-01 GAOFEN 3D 4
1 52389U 22046B   26123.34892351  .07439760  25915-5  70815-3 0  9997
2 52389  97.4853 244.0988 0013026 269.6333  90.3472 16.38327086223561
Epoch: 2026-05-03T08:22Z
TLE epoch observation values (Epoch: 2026-05-03T08:22:26.991Z)
Latitude
-0.00007°
Longitude
-102.76741°
Altitude
173.566 km
Speed
7.802 km/s
True Right ascension
16h 16m 23s
True Declination
0° 00' 00"
Sunlit
Object was in full shadow at epoch
Visualization orbit readout
Latitude
Unknown
Longitude
Unknown
Altitude
Unknown
Speed
Unknown
Apparent Right ascension
Unknown
Apparent Declination
Unknown
Sunlit
N/A
Visualization observer readout
Local Sidereal Time
02:14:42
Azimuth
Unknown
Elevation
Unknown
Doppler factor
Unknown
Orbital elements
Apogee altitude
175.596 km
Perigee altitude
158.544 km
Semi-major axis
6,545.207 km
Eccentricity
0.0013
Inclination
97.4853°
RAAN
244.0988°
Arg. of periapsis
269.6333°
True anomaly
90.49646°
Mean anomaly
90.3472°
Eccentric anomaly
90.42183°
Mean motion
4.09881 °/min
Orbital period
87.83 mins
BSTAR
0.00070815
Loading maneuver chart data...
Computing Atmospheric mass density...
Loading historical data...
Loading historical data...
Loading historical data...
Loading historical data...
Loading historical data...
Loading historical data...
Loading historical data...

Documentation

Showing up to 5 results
|